Location: Ferrwies
(48.5130°N, 8.3423°E)
Time: 20:03:26
(UTC+00:00)

Daily predictions for brighter satellites

Satellite Brightness Start Highest point End
(mag) Time Altitude Azimuth Time Altitude Azimuth Time Altitude Azimuth
Cosmos 1624 Rocket 4.2 18:05:07 10° S 18:10:16 55° ESE 18:15:29 10° NNE
Cosmos 1470 Rocket 3.6 18:06:58 10° S 18:11:24 66° E 18:15:51 10° NNE
NOSS 0 Rocket 4.5 18:08:12 10° NNW 18:14:04 42° NE 18:19:53 10° ESE
Cosmos 1420 Rocket 4.1 18:11:30 10° S 18:16:37 58° ESE 18:21:44 10° NNE
Cosmos 2173 Rocket 4.1 18:12:30 10° N 18:18:52 62° ENE 18:25:10 10° SSE
Okean-O 3.9 18:16:08 10° ESE 18:19:38 24° ENE 18:23:10 10° N
Cosmos 1263 4.3 18:17:28 10° S 18:20:57 64° E 18:24:00 10° NNE
Timation 1 Rocket 4.5 18:16:45 10° S 18:22:34 55° ESE 18:28:27 10° NE
Okean O Rocket 1.6 18:23:23 10° SSE 18:27:46 67° ENE 18:32:08 10° N
DMSP B5D1-3 4.5 18:23:13 10° NNE 18:28:24 73° ESE 18:33:32 10° S
Cosmos 2242 Rocket 4.1 18:24:56 10° N 18:29:16 40° ENE 18:33:34 10° SE
Cosmos 2100 Rocket 4.0 18:23:00 10° N 18:29:25 77° E 18:35:44 10° SSE
YAOGAN 1 3.2 18:25:41 10° S 18:29:56 61° WSW 18:34:14 10° NNW
GEOS 3 Rocket 3.7 18:24:38 10° NE 18:30:02 70° SE 18:35:24 10° SSW
CSL-04 Rocket 4.1 18:26:59 10° SE 18:32:14 45° ENE 18:37:29 10° N
ISS -3.2 18:29:03 10° W 18:32:22 56° NNW 18:35:41 10° ENE
In-Cosmos 22 4.3 18:27:10 10° NNW 18:32:50 89° W 18:38:34 10° S
USA 215 3.7 18:26:38 10° NE 18:33:07 66° NNW 18:39:34 10° WSW
EXPRESS MD2 4.2 18:32:36 10° W 18:34:21 19° SSW 18:36:04 10° SSE
Cosmos 676 Rocket 4.0 18:29:13 10° NNW 18:34:28 89° WSW 18:39:43 10° SSE
SL-27 R/B 2.1 18:31:28 10° SSW 18:34:44 71° ESE 18:38:00 10° NNE
Cosmos 1452 Rocket 4.3 18:30:22 10° SSE 18:34:53 30° E 18:39:26 10° NE
KORONAS-FOTON 3.8 18:31:38 10° N 18:35:28 89° ENE 18:39:17 10° S
Cosmos 2237 Rocket 2.9 18:33:36 10° NNW 18:38:50 37° NE 18:43:20 13° ESE
Exosat Rocket 3.8 18:35:54 10° SSW 18:41:03 80° ESE 18:47:42 10° NNE
USA 186 1.8 18:41:14 10° SSE 18:44:14 52° ENE 18:47:18 10° N
Okean 3 3.9 18:44:23 10° NNW 18:48:34 65° W 18:52:45 10° S
Meteor 1-21 4.2 18:42:55 10° NNW 18:48:35 89° WSW 18:54:14 10° S
Cosmos 1741 Rocket 4.2 18:45:04 10° NNW 18:50:11 51° ENE 18:54:39 13° SE
Cosmos 1707 3.8 18:49:58 10° NNW 18:53:39 47° W 18:57:17 10° SSW
CZ-4B R/B 4.0 18:48:06 10° S 18:53:40 58° WSW 18:59:15 10° NNW
Cosmos 2322 4.2 18:49:19 10° NNW 18:54:55 63° WSW 19:00:28 10° SSE
IRS-1C Rocket 4.5 18:50:12 11° SE 18:55:02 45° ENE 19:00:02 10° N
Okean 1-7 3.7 18:50:50 10° NNW 18:55:09 57° W 18:59:24 10° S
Cosmos 1674 3.5 18:54:26 10° NNW 18:58:04 52° W 19:01:41 10° S
Lacrosse 5 rocket 2.5 18:54:58 10° S 18:58:20 22° SE 18:59:08 21° ESE
Cosmos 1805 3.4 18:54:43 10° SSE 18:58:21 45° E 19:02:02 10° NNE
Cosmos 1980 3.9 18:54:44 10° NNW 19:00:19 53° NE 19:04:23 18° SE
Cosmos 2219 Rocket 3.3 18:56:03 10° NW 19:01:27 45° WSW 19:06:49 10° S
Cosmos 1933 Rocket 4.0 18:58:26 10° SSW 19:02:44 65° WNW 19:07:04 10° N
Cosmos 1975 2.9 18:58:50 10° SSW 19:02:47 79° W 19:06:48 10° N
SJ-6B 2.9 18:59:11 10° S 19:03:06 76° WSW 19:06:58 10° NNW
Cosmos 2333 Rocket 4.1 18:58:19 10° NW 19:03:17 30° WSW 19:08:12 10° SSW
Cosmos 1726 2.0 19:04:23 10° S 19:07:48 55° E 19:11:16 10° NNE
Cosmos 1864 Rocket 4.4 19:01:50 10° N 19:08:04 88° ENE 19:14:13 10° S
Cosmos 2233 Rocket 4.0 19:02:01 10° N 19:08:05 58° ENE 19:14:10 10° SSE
CSL-04 Debris 4.2 19:03:09 10° SSE 19:08:34 89° W 19:14:03 10° NNW
Ariane Rocket 4.3 19:09:42 20° E 19:11:14 23° ENE 19:15:11 10° N
BREEZE-M DEB (TANK) 4.2 19:09:36 10° W 19:12:02 16° SW 19:13:43 10° S
Cosmos 2061 Rocket 4.0 19:05:48 10° N 19:12:18 80° E 19:18:43 10° SSE
Cosmos 1869 Rocket 3.4 19:08:00 10° S 19:12:18 84° E 19:16:40 10° N
Cosmos 1900 4.5 19:08:33 10° SW 19:13:31 77° NW 19:18:27 10° NE
COSMOS 2428 3.3 19:09:01 10° NW 19:14:39 58° WSW 19:20:15 10° S
Landsat 5 3.7 19:11:45 10° NNE 19:15:22 37° E 19:17:14 23° SSE
SL-14 R/B 3.1 19:12:50 10° N 19:16:42 77° ENE 19:19:24 19° SSE
USA 281 4.3 19:14:13 10° NNE 19:20:27 47° NW 19:26:39 10° SW
Cosmos 2297 Rocket 2.5 19:15:29 10° S 19:20:46 43° ESE 19:26:05 10° NE
NOSS 3-2 (A) 4.4 19:15:06 10° NW 19:22:32 68° SW 19:30:28 13° SSE
Cosmos 1867 3.5 19:19:07 10° SSW 19:24:26 60° ESE 19:29:49 10° NE
Resurs 01 Rocket 1.6 19:25:55 28° SE 19:28:09 65° ENE 19:32:32 10° N
Cosmos 1725 Rocket 4.2 19:23:09 10° NNW 19:29:18 70° W 19:35:26 10° S
Cosmos 1733 3.8 19:28:48 10° SSW 19:32:30 56° WNW 19:36:14 10° N
CZ-4C R/B 3.7 19:26:28 10° NW 19:32:34 36° NNE 19:36:50 22° E
CENTAUR R/B 3.7 19:24:55 10° NW 19:33:01 59° WSW 19:41:24 12° SSE
NOSS 3-2 (C) 4.1 19:25:42 10° NW 19:33:09 90° NE 19:38:47 24° SE
Cosmos 1271 Rocket 4.1 19:36:59 24° NE 19:36:59 24° NE 19:38:47 10° NNE
MOS 1 4.3 19:33:10 27° SE 19:36:19 65° ENE 19:42:00 10° N
Cosmos 2227 Rocket 2.7 19:31:31 10° S 19:36:37 36° ESE 19:41:44 10° NE
IRS-P2 Rocket 4.5 19:33:49 27° SSE 19:36:41 71° ENE 19:41:55 10° NNW
CZ-4 R/B 4.1 19:34:42 10° SW 19:37:26 18° W 19:40:12 10° NW
Terra 3.3 19:42:45 21° NE 19:42:45 21° NE 19:45:59 10° NNE
Iridium 4 Rocket 3.9 19:38:51 10° NNW 19:42:53 47° W 19:46:52 10° SSW
Geosat 4.1 19:40:51 28° SSE 19:43:33 77° WSW 19:48:35 10° NNW
USA 238 DEB 3.9 19:39:27 10° NW 19:46:47 89° NE 19:50:50 32° SE
USA 238 3.9 19:39:34 10° NW 19:46:53 88° NE 19:50:54 32° SE
MetOp-A 4.1 19:46:22 40° SE 19:48:09 64° ENE 19:53:18 10° N
SL-16 R/B 2.8 19:42:57 10° NNW 19:48:21 42° NE 19:49:39 36° E
Cosmos 1674 Rocket 3.5 19:48:17 10° N 19:52:35 59° ENE 19:52:42 58° E
Cosmos 1733 Rocket 2.8 19:53:01 40° S 19:54:30 83° E 19:58:51 10° N
Okean-O 3.7 19:52:19 14° SSW 19:55:51 44° W 20:00:06 10° NNW
CARTOSAT-1 3.4 19:58:45 67° SSE 19:59:18 84° ENE 20:03:38 10° NNW
Meteor 2-13 Rocket 4.3 19:53:14 10° S 19:59:23 79° E 20:05:34 10° NNE
SPOT 1/Viking Rocket 4.0 19:55:57 20° S 19:59:31 60° W 20:04:41 10° NNW
Cosmos 1110 Rocket 4.1 19:56:24 10° SSW 20:01:37 74° WNW 20:06:49 10° NNE
SPOT 5 3.3 20:02:23 42° ENE 20:02:23 42° ENE 20:06:41 10° N
Cosmos 1378 Rocket 3.4 19:59:24 10° N 20:03:50 80° E 20:04:02 77° ESE
Okean O Rocket 4.5 20:02:01 10° SW 20:04:32 15° W 20:07:04 10° NW
Cosmos 2221 Rocket 3.5 20:00:27 10° N 20:04:54 87° W 20:05:26 69° S
Cosmos 1464 Rocket 4.1 20:00:56 10° N 20:07:12 57° ENE 20:08:27 49° ESE
BREEZE-M DEB (TANK) 3.0 20:04:22 10° WNW 20:08:23 56° W 20:08:23 56° W
ISS -2.5 20:06:11 10° WNW 20:08:42 41° NW 20:08:42 41° NW
USA 215 4.2 20:10:32 15° ENE 20:15:36 43° N 20:21:42 10° WNW
ADEOS Rocket 3.4 20:15:26 45° E 20:16:25 49° ENE 20:23:06 10° N
Cosmos 1766 4.0 20:17:37 47° W 20:18:01 49° WNW 20:21:44 10° N
Cosmos 1891 Rocket 4.3 20:11:55 10° N 20:18:05 84° E 20:19:47 51° SSE
Cosmos 1331 Rocket 4.5 20:13:33 10° SW 20:18:38 59° WNW 20:23:45 10° NNE
Meteor 1-22 Rocket 4.3 20:20:16 61° ESE 20:20:47 64° E 20:26:47 10° NNE
Cosmos 2237 Rocket 3.1 20:17:39 10° NW 20:22:59 44° WSW 20:25:11 30° SSW
H-2A R/B 2.8 20:23:55 68° N 20:23:55 68° N 20:27:51 10° NNW
Meteor 1-15 Rocket 4.1 20:24:43 56° S 20:26:01 84° E 20:31:56 10° NNE
MetOp-B 4.2 20:29:53 59° SSW 20:30:46 71° WSW 20:36:09 10° NNW
Cosmos 2346 Rocket 4.3 20:31:21 52° S 20:33:01 90° ESE 20:39:17 10° N
ATLAS CENTAUR R/B 4.2 20:18:30 10° WSW 20:33:47 75° NNW 20:40:10 13° NE
Cosmos 968 Rocket 4.0 20:31:48 10° NNW 20:36:47 49° WSW 20:37:26 46° SW
Lacrosse 5 rocket 3.1 20:32:38 10° WSW 20:34:34 26° WSW 20:34:34 26° WSW
SJ 16-02 2.7 20:33:34 10° N 20:36:14 32° NNE 20:36:14 32° NNE
Meteor 1-12 Rocket 4.3 20:38:17 48° SSW 20:39:56 75° WNW 20:45:41 10° N
ERS-1 Rocket 3.2 20:44:49 62° N 20:44:49 62° N 20:49:01 10° NNW
FALCON 9 R/B 4.1 20:29:29 10° WSW 20:44:13 32° SSW 20:45:15 32° S
Meteor 1-24 Rocket 3.8 20:40:52 10° NNW 20:46:48 78° W 20:47:15 73° SW
Ariane Rocket 3.4 20:49:53 57° W 20:49:53 57° W 20:54:51 10° NNW
BREEZE-M DEB (TANK) 3.3 20:45:47 10° WNW 20:50:43 63° W 20:50:43 63° W
Cosmos 1943 4.1 20:50:04 10° NNW 20:54:31 38° NNE 20:54:31 38° NNE
Meteor 2-15 Rocket 4.4 20:50:42 10° NNW 20:56:51 78° W 20:57:03 77° WSW
Spot 2 Rocket 4.0 21:01:35 58° NW 21:01:35 58° NW 21:05:46 10° NNW
Cosmos 2297 Rocket 3.5 20:59:40 10° WSW 21:04:53 37° NW 21:10:09 10° NNE
Resurs 01 Rocket 4.2 21:03:27 13° WSW 21:05:04 15° W 21:07:42 10° NW
Cosmos 2034 Rocket 4.0 21:01:55 10° NNW 21:07:51 76° WNW 21:07:51 76° WNW
SPOT 3 Rocket 4.3 21:12:40 48° WNW 21:12:40 48° WNW 21:17:08 10° NNW
Cosmos 2219 3.8 21:13:55 53° NNW 21:13:55 53° NNW 21:18:33 10° NNE
ATLAS 3B R/B 3.8 21:09:13 10° NW 21:16:06 38° NNE 21:17:41 34° NE
Terra 3.2 21:21:29 36° NW 21:21:29 36° NW 21:24:25 10° NNW
Cosmos 2227 Rocket 3.2 21:15:19 11° SW 21:20:34 44° NW 21:26:00 10° NNE
CZ-4C R/B 2.8 21:14:44 10° NW 21:21:54 88° SW 21:21:59 87° SSW
SL-16 R/B 3.4 21:27:12 10° NW 21:31:32 36° W 21:31:32 36° W
USA 215 3.9 21:57:51 49° NNE 21:57:56 49° NNE 22:04:12 10° WNW
ADEOS Rocket 4.2 22:02:22 36° W 22:02:22 36° W 22:08:27 10° NNW
Cosmos 2263 Rocket 4.1 22:13:19 23° NNE 22:13:19 23° NNE 22:15:26 10° NNE
SJ 16-02 4.4 22:12:42 10° NW 22:13:07 12° NW 22:13:07 12° NW
ATLAS 2AS CENTAUR R/B 4.3 22:29:02 27° NE 22:29:02 27° NE 22:32:02 10° NE
ATLAS CENTAUR R/B 4.2 22:40:09 10° WNW 22:49:34 40° N 22:49:44 40° N
ATLAS 3B R/B 3.7 23:00:03 10° NW 23:04:56 45° NW 23:04:56 45° NW
Cosmos 2344 4.3 23:11:51 10° NW 23:18:50 62° WNW 23:18:50 62° WNW
